Regional Weather Roundup
Issued by NWS

Home | Current Version | Previous Version | Text Only | Print | Product List | Glossary Off
Versions: 1 2 3 4 5 6 7 8 9 10 11 12 13 14 15 16 17 18 19 20 21 22 23 24 25 26 27 28 29 30 31 32 33 34 35 36 37 38 39 40 41 42 43 44 45 46 47 48 49 50

000
ASUS43 KDMX 082108
RWRIA

WEATHER ROUNDUP FOR IOWA
NATIONAL WEATHER SERVICE DES MOINES IA
300 PM CST MON FEB 08 2016

NOTE: "FAIR" INDICATES FEW OR NO CLOUDS BELOW 12,000 FEET WITH NO
SIGNIFICANT WEATHER AND/OR OBSTRUCTIONS TO VISIBILITY.

* - THESE STATIONS ARE NOT NWS STATIONS...THUS NOT UNDER NWS
QUALITY CONTROL.  THEY ALSO DO NOT REPORT WEATHER SUCH
AS PRECIPITATION OR FOG.

IAZ001>003-012>014-020>022-031>034-043>046-082200-
   NORTHWEST IOWA

CITY           SKY/WX    TMP DP  RH WIND       PRES   REMARKS
CARROLL *      CLOUDY    19  12  73 NW37      30.03R WCI  -1
CHEROKEE *     PTSUNNY   21  14  73 N17G26    30.07R WCI   7
DENISON *      CLOUDY    21  16  79 N20G31    30.04S WCI   6
LE MARS *      FLURRIES  25  19  80 NW26G35   30.10R WCI   9
ORANGE CITY *    N/A     21  16  79 N18G26    30.07R WCI   6
SHELDON *      LGT SNOW  18  16  93 NW25G35   30.06R WCI  -1
SIOUX CITY     CLOUDY    29  17  61 NW35G45   30.08R WCI  12
SPENCER        MIX PCPN  18   9  68 NW29G36   30.03S WCI  -1
STORM LAKE *   PTSUNNY   19  14  79 NW30G41   30.02S WCI   0
$$

IAZ055>058-069>071-079>083-090>094-082200-
   SOUTHWEST IOWA

CITY           SKY/WX    TMP DP  RH WIND       PRES   REMARKS
ATLANTIC *     FLURRIES  23  16  74 N23G35    30.05S WCI   7
AUDUBON *      CLOUDY    21  14  73 N28G35    30.04R WCI   3
CLARINDA *     CLOUDY    27  18  69 N21G31    30.08S WCI  13
COUNCIL BLFS * CLOUDY    27  18  69 N24G38    30.06F WCI  12
CRESTON *      FLURRIES  21  12  68 NW31G39   30.03R WCI   3
HARLAN  *      FLURRIES  23  18  80 N16G33    30.08S WCI  10
LAMONI         LGT SNOW  21  12  68 N26G41    29.99R WCI   4
RED OAK *      MIX PCPN  27  18  69 NW21G32   30.07R WCI  13
SHENANDOAH *   CLOUDY    28  19  69 NW23G33   30.09S WCI  14
$$

IAZ047>049-059>061-072>074-084-082200-
   CENTRAL IOWA

CITY           SKY/WX    TMP DP  RH WIND       PRES   REMARKS
AMES           LGT SNOW  17  10  74 NW25G38   29.99R WCI  -1
ANKENY *       LGT SNOW  18  12  79 NW21G30   30.00R WCI   1
BOONE *        LGT SNOW  18  10  73 NW18G31   29.98R WCI   2
CHARITON *     CLOUDY    19   9  63 NW26G38   29.97R WCI   1
DES MOINES     FLURRIES  20   8  60 N29G41    30.00R WCI   1
GRINNELL*      FLURRIES  16  10  79 NW28      29.93R WCI  -4
KNOXVILLE *    LGT SNOW  19  10  68 NW25      29.95R WCI   2
MARSHALLTOWN   FLURRIES  16   9  74 NW30G36   29.94R WCI  -4
NEWTON *       LGT SNOW  18  12  79 NW25      29.95R WCI  -1
PELLA *        MOSUNNY   19  10  68 NW28G36   29.97R WCI   1
$$

IAZ004>006-015-016-023>025-035-036-082200-
   NORTH CENTRAL IOWA

CITY           SKY/WX    TMP DP  RH WIND       PRES   REMARKS
ALGONA *       LGT SNOW  16  10  79 NW33G45   29.97S WCI  -5
CLARION *      LGT SNOW  16  10  79 NW37      29.97R WCI  -6
ESTHERVILLE    LGT SNOW  15  11  83 NW30G38   30.00S FOG     WCI  -5
FORT DODGE *   CLOUDY    16   9  73 NW14G23   30.01R WCI   1
MASON CITY     LGT SNOW  15  10  80 NW31G38   29.94R VSB 1   WCI  -6
FOREST CITY *  LGT SNOW  16  12  86 NW23G31   29.94R VSB 3/4 WCI  -2
WEBSTER CITY * SNOW      16  12  86 NW32G39   29.97R VSB 0   WCI  -5
IOWA FALLS *   LGT SNOW  16  12  86 NW29G38   29.95R VSB 3/4 WCI  -4
$$

IAZ007>011-017>019-026>030-037>042-050>054-066-082200-
   NORTHEAST IOWA

CITY           SKY/WX    TMP DP  RH WIND       PRES   REMARKS
CEDAR RAPIDS   FLURRIES  17  11  77 NW22      29.86R WCI   0
CHARLES CITY * FLURRIES  14  10  85 NW22G28   29.90R WCI  -4
CLINTON *      CLOUDY    22  16  78 W22       29.79R WCI   6
DECORAH *      FLURRIES  14   7  73 N16G25    29.83R WCI  -2
DUBUQUE        CLOUDY    20  12  71 N16       29.78R WCI   6
MONTICELLO *   CLOUDY    19  10  68 NW21G28   29.82R WCI   3
OELWEIN *      PTSUNNY   14   9  79 NW23G31   29.87R HAZE    WCI  -5
WATERLOO       CLOUDY    15   7  70 NW23      29.91R WCI  -3
$$

IAZ064-065-067-068-078-082200-
   EAST CENTRAL IOWA

CITY           SKY/WX    TMP DP  RH WIND       PRES   REMARKS
DAVENPORT      CLOUDY    20  11  68 NW16      29.81R WCI   6
IOWA CITY      FLURRIES  18  10  71 NW18G29   29.89R WCI   2
MT. PLEASANT * CLOUDY    21  12  68 NW23      29.89R WCI   5
MUSCATINE *    FLURRIES  19  12  73 NW20G26   29.88S WCI   4
QUAD CITIES    CLOUDY    21  12  68 W17G31    29.82R WCI   7
$$

IAZ062-063-075>077-085>089-095>099-082200-
   SOUTHEAST IOWA

CITY           SKY/WX    TMP DP  RH WIND       PRES   REMARKS
BURLINGTON     FLURRIES  19  11  70 NW16G29   29.87R WCI   4
FAIRFIELD *    FLURRIES  18  10  73 NW24G31   29.89S WCI   0
FORT MADISON * CLOUDY    19  12  73 NW18G30   29.89R WCI   4
KEOKUK *       CLOUDY    21  12  68 NW21      29.90R WCI   6
OSKALOOSA *    FLURRIES  18  12  79 NW25G35   29.93S WCI  -1
CENTERVILLE *    N/A    N/A N/A N/A MISG        N/A
WASHINGTON *   CLOUDY    18  10  73 NW25G33   29.90R WCI  -1
$$

ABBREVIATIONS USED IN REMARKS
   TC - TEMPERATURES IN CELSIUS
  WCI - WIND CHILL INDEX
   HX - HEAT INDEX
  VSB - VISIBILITY
$$




USA.gov is the U.S. government's official web portal to all federal, state and local government web resources and services.